Alla auktioner Båt Losbåt 116, 45 BT, LOA 16,8m, Dockstavarvet, 2008

Losbåt 116, 45 BT, LOA 16,8m, Dockstavarvet, 2008 Tananger

Alla belopp i NOK
Högsta bud 1 007 000,-
Reservationspris: (inte uppnått)
Budsteg 2 000,-
Moms exkl moms Objektet säljs utan moms.

Moms tillkommer på omkostnaderna.
Avgifter: Bara betalningsavgift tillkommer.
Du bekräftar ditt bud i nästa steg.Läs mer om autobud här
Startade:03.03.2021 14:00:00 Avslutad: 08.04.2021 14:50:10 CET

Produktinformation

Egenskaper

  • MärkeDockstavarvet AB
  • Årsmodell2008
  • Chassisnummer / SerienummerBygg 551

Andra egenskaper

    Beskrivning

    Fartøyet er bygget ved Dockstavarvet AB i 2008, som bygg nr. 551.

    MASKINERI Fremdriftsmaskineriet ombord består av Twin MTU 8V 2000 M72 dieselmotorer med en ytelse hver på 720 kW v/2250 o/min(980 hk). Disse er koblet til Twin Servogear som omfatter gir, shaft og propeller type HDD220H/9P800. Toppfarten er på 28 knop. Gensettet er et Perkins/Stamford på 10 kVA. Ventilasjonsanlegg er type Servex og brannslukkeanlegget Clean Agent FS49C2.
    Maskinene har gått 20.000 timer men skal være totaloverhalt av Kystverket ved ca. 12.000 timer.

    Den ble levert juni 2008 til Fedje losbåtstasjon. I 2015 ble den flyttet til Tananger losbåt stasjon, hvor den gikk som fast båt fram til 2017. Da ble den flyttet til Honningsvåg, før den igjen ble flyttet tilbake til Tananger i 2019 hvor den ligger som reservebåt pr. d.d.

    Båten er mye påkostet med motoroverhalinger hos B. O. Steen i 2013 og skiftet propeller, propellhoder samt injektorer i 2015.
    Gyldig fartssertifikat til 2023, med mellombesiktigelse innen Juni 2021.
    NB! Redningsflåter følger ikke med, dette er leieflåter.
    Selges som den står.

    Kontakt for info: vh@icspartner.com

    The vessel was built at Dockstavarvet AB in 2008, as building no. 551.

    MACHINERY The propulsion machinery on board consists of Twin MTU 8V 2000 M72 diesel engines with an output each of 720 kW v / 2250 rpm (980 hp). These are connected to Twin Servogear which includes gear, shaft and propeller type HDD220H / 9P800. The top speed is 28 knots. The generator set is a 10 kVA Perkins / Stamford. Ventilation systems are type Servex and the fire extinguishing system Clean Agent FS49C2.
    The machines have run 20,000 hours and were completely overhauled by the Norwegian Coastal Administration at approx. 12,000 hours.

    It was delivered in June 2008 to Fedje pilot boat station. In 2015, it was moved to Tananger pilot boat station, where it was a permanent boat until 2017. Then it was moved to Honningsvåg, before it was again moved back to Tananger in 2019 where it is located as a reserve boat until today.

    The boat has been extensively serviced with engine overhauls in 2013 and replaced propellers, propeller heads and injectors in 2015.
    Valid speed certificate until 2023, with intermediate inspection by June 2021.

    NB! Life rafts not included, they are rentals.
    Sold As Is.

    Contact for info: vh@icspartner.com

    Viktig försäljningsinformation

    Säljare Buksér og Berging AS
    Plats Tananger, Norway

    Allmänna villkor

    • Kommission är inkluderat i budet. På några auktioner tillkommer hanteringsavgift. Moms och betalningsavgift (250,- / EUR 25) tillkommer.
    • Betalningsfrist på alla fakturor är 5 dagar.
    • Betalning ska vara registrerad innan säljaren kontaktas för utlämning
    • Alla köp ska hämtas innan 21 dagar. OBS! Det förväntas att köpare i samarbete med säljare arrangerar hämtning enligt gällande restriktioner och instruktioner från myndigheterna.
    • Hämtning av betalt objekt SKA vara avtalt med säljaren
    • Köparen betalar alla utgifter kring hämtning, frakt och eventuell export

    Budhistorik

    Kund ID Datum / Tid Bud
    5030088 08.04.2021 14:45:10 1 007 000
    5019394 08.04.2021 14:42:27 1 005 000
    5030088 08.04.2021 14:41:04 1 003 000
    5019394 08.04.2021 14:36:09 1 001 000
    5030088 08.04.2021 14:32:50 1 000 000
    5019394 08.04.2021 14:35:58 999 000
    5019394 08.04.2021 14:35:47 995 000
    5019394 08.04.2021 14:35:37 991 000
    5019394 08.04.2021 14:35:24 987 000
    5019394 08.04.2021 14:35:18 983 000
    5019394 08.04.2021 14:35:08 979 000
    5019394 08.04.2021 14:34:55 975 000
    5019394 08.04.2021 14:34:48 971 000
    5019394 08.04.2021 14:34:41 967 000
    5019394 08.04.2021 14:34:28 963 000
    5019394 08.04.2021 14:31:45 959 000
    5030088 08.04.2021 14:30:39 957 000
    5019394 08.04.2021 14:28:12 955 000
    5030088 08.04.2021 14:24:39 953 000
    5019394 08.04.2021 14:24:07 951 000
    5030088 08.04.2021 14:20:38 950 000
    5019394 08.04.2021 14:23:45 913 000
    5019394 08.04.2021 14:23:36 909 000
    5019394 08.04.2021 14:23:24 905 000
    5019394 08.04.2021 14:17:02 901 000
    5030088 08.04.2021 14:06:53 900 000
    5019394 08.04.2021 14:16:49 899 000
    5019394 08.04.2021 14:16:38 895 000
    5019394 08.04.2021 14:16:31 891 000
    5019394 08.04.2021 14:16:22 887 000
    5019394 08.04.2021 14:16:16 883 000
    5019394 08.04.2021 14:16:09 879 000
    5019394 08.04.2021 14:16:01 875 000
    5019394 08.04.2021 14:15:51 871 000
    5019394 08.04.2021 14:15:38 867 000
    5019394 08.04.2021 14:15:25 863 000
    5019394 08.04.2021 14:15:19 859 000
    5019394 08.04.2021 14:14:51 855 000
    5019394 08.04.2021 14:14:33 819 000
    5019394 08.04.2021 14:14:26 815 000
    5019394 08.04.2021 14:14:17 811 000
    5019394 08.04.2021 14:14:03 807 000
    5019394 08.04.2021 14:10:30 803 000
    5019394 08.04.2021 14:10:06 799 000
    5019394 08.04.2021 14:09:35 767 000
    5019394 08.04.2021 14:09:29 763 000
    5019394 08.04.2021 14:09:16 759 000
    5019394 08.04.2021 14:08:49 755 000
    5019394 08.04.2021 14:08:26 751 000
    5019394 08.04.2021 14:08:17 747 000
    5019394 08.04.2021 14:08:04 743 000
    5019394 08.04.2021 14:07:38 739 000
    5006251 08.04.2021 14:04:40 703 000
    5030088 08.04.2021 14:04:27 702 000
    5019394 08.04.2021 14:01:27 699 000
    5006251 08.04.2021 14:04:21 685 000
    5006251 08.04.2021 14:02:20 680 000
    5030088 08.04.2021 14:01:24 670 000
    5006251 08.04.2021 13:59:37 651 000
    5030088 08.04.2021 13:59:52 646 000
    5019394 08.04.2021 13:58:33 642 000
    5006251 08.04.2021 13:58:25 640 000
    5030088 08.04.2021 13:57:19 640 000
    5019394 08.04.2021 13:58:11 635 000
    5006251 08.04.2021 13:55:49 616 000
    5019394 08.04.2021 13:54:10 611 000
    5006251 08.04.2021 13:48:36 610 000
    5019394 08.04.2021 13:47:56 607 000
    5019394 08.04.2021 13:47:40 605 000
    5006251 08.04.2021 13:44:45 605 000
    5019394 08.04.2021 13:38:31 601 000
    5006251 08.04.2021 13:11:03 600 000
    5019394 08.04.2021 13:38:10 559 000
    5019394 08.04.2021 13:37:52 555 000
    5019394 08.04.2021 12:46:49 551 000
    5006251 08.04.2021 12:42:51 550 000
    5006251 08.04.2021 12:41:29 500 000
    5030088 08.04.2021 12:17:59 500 000
    5006251 08.04.2021 12:02:43 450 000
    5030088 08.04.2021 11:36:32 400 000
    5006251 08.04.2021 11:59:00 370 000
    5006251 08.04.2021 11:57:34 366 000
    5006251 08.04.2021 11:56:32 362 000
    5006251 08.04.2021 11:55:41 358 000
    232161 08.04.2021 11:43:36 354 000
    5030484 08.04.2021 11:04:03 350 000
    5030088 08.04.2021 11:19:28 336 000
    5030088 08.04.2021 11:18:15 318 000
    5030088 08.04.2021 10:56:17 314 000
    5006251 08.04.2021 10:56:07 312 000
    5019394 08.04.2021 10:48:02 310 000
    5030088 08.04.2021 10:06:05 308 000
    5030484 08.04.2021 08:58:52 306 000
    5020231 08.04.2021 08:53:58 304 000
    5030484 07.04.2021 21:57:09 302 000
    5020231 07.04.2021 21:20:31 300 000
    Utropspris 300000
    * = Autobud